Flag for Germany Weather past 2 weeks in Senftenberg, Brandenburg, Germany

Now
77 °F

Partly sunny.


Feels Like: 79 °F
Forecast: 63 / 78 °F
Wind: 1 mph from West

Location: Cottbus

Current Time: Jul 29, 2014 at 10:48:37 AM

Latest Report: Jul 29, 2014 at 10:00 AM


Visibility: 9 mi

Pressure: 29.76 "Hg

Humidity: 68%

Dew point: 65 °F

Location of SenftenbergLocation

Historic Weather in Senftenberg — Graph

°F

Senftenberg temperature yesterday

Maximum temperature yesterday: 83 °F (at 6:00 PM)
Minimum temperature yesterday: 67 °F (at 6:00 AM)
Average temperature yesterday: 73 °F

Past Weeks' High & Low Weather Summary

 TemperatureHumidityPressure
High95 °F (Jul 20, 4:00 PM)100% (Jul 26, 6:00 AM)30.16 "Hg (Jul 26, 6:00 AM)
Low56 °F (Jul 16, 5:00 AM)24% (Jul 20, 4:00 PM)29.75 "Hg (Jul 21, 3:00 AM)
Average73 °F67%29.96 "Hg
* Reported Jul 14 9:00 AM — Jul 29 9:00 AM, Senftenberg, Weather by CustomWeather, © 2014

Note: Actual official high and low records may vary slightly from our data, if they occured in-between our weather recording intervals... More about our weather records

Advertising

Senftenberg weather history for previous 24 hours

 ConditionsComfort  
Time TempWeatherWind HumidityBarometerVisibility
9:00 AM
Jul 29
74 °FScattered clouds.1 mph75%29.77 "Hg7 mi
8:00 AM71 °FPartly sunny.1 mph81%29.77 "Hg6 mi
7:00 AM69 °FFog.1 mph90%29.77 "Hg4 mi
6:00 AM67 °FOvercast.2 mph95%29.79 "Hg3 mi
5:00 AM66 °FFog.1 mph93%29.79 "Hg4 mi
4:00 AM65 °FFog.1 mph94%29.80 "Hg4 mi
3:00 AM65 °FOvercast.1 mph93%29.80 "Hg7 mi
2:00 AM68 °FOvercast.1 mph86%29.80 "Hg11 mi
1:00 AM69 °FOvercast.1 mph80%29.81 "Hg19 mi
12:00 AM70 °FOvercast.1 mph73%29.81 "Hg22 mi
11:00 PM
Jul 28
72 °FOvercast.1 mph69%29.82 "Hg25 mi
10:00 PM76 °FOvercast.5 mph66%29.85 "Hg13 mi
9:00 PM76 °FOvercast.1 mph72%29.83 "Hg9 mi
8:00 PM79 °FOvercast.2 mph60%29.81 "Hg14 mi
7:00 PM81 °FOvercast.2 mph54%29.82 "Hg15 mi
6:00 PM83 °FOvercast.3 mph50%29.81 "Hg14 mi
5:00 PM82 °FOvercast.3 mph50%29.83 "Hg15 mi
4:00 PM80 °FOvercast.3 mph60%29.84 "Hg11 mi
3:00 PM79 °FOvercast.3 mph66%29.86 "Hg8 mi
2:00 PM77 °FOvercast.2 mph68%29.88 "Hg9 mi
1:00 PM77 °FOvercast.2 mph73%29.90 "Hg6 mi
12:00 PM73 °FOvercast.3 mph76%29.90 "Hg6 mi
11:00 AM72 °FOvercast.1 mph83%29.90 "Hg6 mi
10:00 AM71 °FOvercast.1 mph85%29.90 "Hg6 mi
Weather by CustomWeather, © 2014

See weather overviewHow to use our weather pages